Weather History for KBXA - November, 2013

Change the Weather History Date:

Thursday, November 28, 2013

  Actual Average Record
Temperature  
Mean Temperature 37 °F -  
Max Temperature 48 °F 70 °F 62 °F (2014)
Min Temperature 26 °F 45 °F 26 °F (2013)
Degree Days  
Heating Degree Days 28    
Moisture  
Dew Point 27 °F    
Average Humidity 73    
Maximum Humidity 92    
Minimum Humidity 37    
Precipitation  
Precipitation 0.00 in - - ()
Sea Level Pressure  
Sea Level Pressure 30.47 in    
Wind  
Wind Speed 1 mph (NE)    
Max Wind Speed 6 mph    
Max Gust Speed -    
Visibility 10 miles    
Events      
Averages and records for this station are not official NWS values.
T = Trace of Precipitation, MM = Missing Value Source: NWS Daily Summary

Daily Weather History Graph

Daily Weather History Graph

Search for Another Location

Airport or City:

Trip Planner

Search our weather history database for the weather conditions in past years. The results will help you decide how hot, cold, wet, or windy it might be!

Date:

Astronomy

Nov. 28, 2013 Rise Set
Actual Time 6:37 AM CST 4:57 PM CST
Civil Twilight 6:11 AM CST 5:23 PM CST
Nautical Twilight 5:41 AM CST 5:53 PM CST
Astronomical Twilight 5:12 AM CST 6:22 PM CST
Moon 1:57 AM CST (11/28) 1:51 PM CST (11/28)
Length of Visible Light 11h 12m
Length of Day
10h 20m
Waning Crescent, 22% of the Moon is Illuminated
Nov 28
Waning Crescent
Dec 2
New
Dec 9
First Quarter
Dec 17
Full
Dec 25
Last Quarter

Hourly Weather History & Observations

Time (CST) Temp. Windchill Dew Point Humidity Pressure Visibility Wind Dir Wind Speed Gust Speed Precip Events Conditions
12:15 AM 29.5 °F - 25.2 °F 84% 30.43 in 10.0 mi Calm Calm - N/A   Unknown
12:35 AM 28.9 °F - 25.3 °F 86% 30.43 in 10.0 mi Calm Calm - N/A   Unknown
12:55 AM 28.4 °F - 25.0 °F 87% 30.42 in 10.0 mi Calm Calm - N/A   Unknown
1:15 AM 28.4 °F - 25.3 °F 88% 30.43 in 10.0 mi Calm Calm - N/A   Unknown
1:35 AM 29.3 °F - 26.1 °F 88% 30.43 in 10.0 mi Calm Calm - N/A   Unknown
1:55 AM 28.2 °F - 25.0 °F 88% 30.44 in 10.0 mi Calm Calm - N/A   Unknown
2:15 AM 28.9 °F - 25.5 °F 87% 30.44 in 10.0 mi Calm Calm - N/A   Unknown
2:35 AM 29.1 °F - 25.0 °F 85% 30.45 in 10.0 mi Calm Calm - N/A   Unknown
2:55 AM 28.6 °F - 24.8 °F 86% 30.45 in 10.0 mi Calm Calm - N/A   Unknown
3:15 AM 29.1 °F - 24.6 °F 83% 30.44 in 10.0 mi Calm Calm - N/A   Unknown
3:35 AM 28.6 °F - 24.6 °F 85% 30.43 in 10.0 mi Calm Calm - N/A   Unknown
3:55 AM 26.6 °F 22.6 °F 23.2 °F 87% 30.44 in 10.0 mi North 3.5 mph - N/A   Unknown
4:15 AM 26.8 °F 22.8 °F 23.4 °F 87% 30.43 in 10.0 mi North 3.5 mph - N/A   Unknown
4:35 AM 28.0 °F 22.8 °F 24.4 °F 86% 30.44 in 10.0 mi North 4.6 mph - N/A   Unknown
4:55 AM 26.8 °F 22.8 °F 23.5 °F 88% 30.44 in 10.0 mi NE 3.5 mph - N/A   Unknown
5:15 AM 28.2 °F 24.4 °F 24.4 °F 86% 30.44 in 10.0 mi NE 3.5 mph - N/A   Unknown
5:35 AM 28.8 °F - 24.8 °F 85% 30.43 in 10.0 mi Calm Calm - N/A   Unknown
5:55 AM 27.7 °F - 24.4 °F 88% 30.44 in 10.0 mi Calm Calm - N/A   Unknown
6:15 AM 27.1 °F - 23.7 °F 87% 30.45 in 10.0 mi Calm Calm - N/A   Unknown
6:35 AM 26.4 °F - 23.7 °F 90% 30.46 in 10.0 mi Calm Calm - N/A   Unknown
6:55 AM 27.0 °F - 24.1 °F 89% 30.48 in 10.0 mi Calm Calm - N/A   Unknown
7:15 AM 27.0 °F - 24.1 °F 89% 30.48 in 10.0 mi Calm Calm - N/A   Unknown
7:35 AM 29.3 °F - 26.2 °F 88% 30.49 in 10.0 mi Calm Calm - N/A   Unknown
7:55 AM 30.4 °F - 25.9 °F 83% 30.49 in 10.0 mi Calm Calm - N/A   Unknown
8:15 AM 31.8 °F - 26.4 °F 80% 30.50 in 10.0 mi Calm Calm - N/A   Unknown
8:35 AM 33.1 °F 28.7 °F 26.6 °F 77% 30.52 in 10.0 mi NE 4.6 mph - N/A   Unknown
8:55 AM 35.6 °F 30.7 °F 27.0 °F 71% 30.53 in 10.0 mi NE 5.8 mph - N/A   Unknown
9:15 AM 37.0 °F 33.3 °F 26.6 °F 66% 30.52 in 10.0 mi East 4.6 mph - N/A   Unknown
9:35 AM 38.5 °F 34.1 °F 25.2 °F 59% 30.53 in 10.0 mi East 5.8 mph - N/A   Unknown
9:55 AM 39.0 °F 34.8 °F 25.3 °F 58% 30.52 in 10.0 mi ENE 5.8 mph - N/A   Unknown
10:15 AM 39.6 °F 36.3 °F 25.0 °F 56% 30.51 in 10.0 mi NE 4.6 mph - N/A   Unknown
10:35 AM 40.8 °F 38.8 °F 25.5 °F 55% 30.51 in 10.0 mi ENE 3.5 mph - N/A   Unknown
10:55 AM 42.3 °F 40.5 °F 25.3 °F 51% 30.50 in 10.0 mi East 3.5 mph - N/A   Unknown
11:15 AM 42.8 °F 41.1 °F 24.3 °F 48% 30.49 in 10.0 mi ENE 3.5 mph - N/A   Unknown
11:35 AM 44.2 °F - 24.8 °F 46% 30.49 in 10.0 mi Calm Calm - N/A   Clear
11:55 AM 44.8 °F - 23.4 °F 43% 30.48 in 10.0 mi Calm Calm - N/A   Clear
12:15 PM 45.9 °F 43.6 °F 23.4 °F 41% 30.47 in 10.0 mi East 4.6 mph - N/A   Clear
12:35 PM 46.8 °F - 23.0 °F 39% 30.46 in 10.0 mi ENE 3.5 mph - N/A   Unknown
12:55 PM 47.7 °F - 24.1 °F 40% 30.45 in 10.0 mi NNE 4.6 mph - N/A   Unknown
1:15 PM 47.8 °F - 23.0 °F 38% 30.44 in 10.0 mi Calm Calm - N/A   Unknown
1:35 PM 48.9 °F - 24.3 °F 38% 30.44 in 10.0 mi NW 3.5 mph - N/A   Unknown
1:55 PM 48.6 °F - 23.5 °F 37% 30.45 in 10.0 mi Calm Calm - N/A   Unknown
2:15 PM 48.4 °F - 24.1 °F 39% 30.45 in 10.0 mi NNW 3.5 mph - N/A   Unknown
2:35 PM 48.4 °F - 25.0 °F 40% 30.44 in 10.0 mi North 4.6 mph - N/A   Unknown
2:55 PM 48.6 °F - 24.8 °F 39% 30.44 in 10.0 mi NNE 3.5 mph - N/A   Unknown
3:15 PM 48.4 °F - 25.9 °F 42% 30.44 in 10.0 mi Calm Calm - N/A   Unknown
3:35 PM 48.7 °F - 27.0 °F 43% 30.44 in 10.0 mi NNE 3.5 mph - N/A   Unknown
3:55 PM 48.9 °F - 26.2 °F 41% 30.44 in 10.0 mi NNE 3.5 mph - N/A   Unknown
4:15 PM 48.6 °F - 26.6 °F 42% 30.45 in 10.0 mi NNE 3.5 mph - N/A   Unknown
4:35 PM 47.1 °F - 27.1 °F 46% 30.45 in 10.0 mi Calm Calm - N/A   Unknown
4:55 PM 45.1 °F - 32.9 °F 62% 30.46 in 10.0 mi Calm Calm - N/A   Unknown
5:15 PM 41.7 °F - 34.7 °F 76% 30.46 in 10.0 mi Calm Calm - N/A   Unknown
5:35 PM 41.9 °F - 34.9 °F 76% 30.47 in 10.0 mi Calm Calm - N/A   Unknown
5:55 PM 39.0 °F - 33.6 °F 81% 30.47 in 10.0 mi Calm Calm - N/A   Unknown
6:15 PM 38.3 °F - 33.8 °F 84% 30.48 in 10.0 mi Calm Calm - N/A   Unknown
6:35 PM 36.5 °F - 33.1 °F 87% 30.47 in 10.0 mi Calm Calm - N/A   Unknown
6:55 PM 36.3 °F - 32.7 °F 87% 30.48 in 10.0 mi Calm Calm - N/A   Unknown
7:15 PM 34.2 °F - 31.6 °F 90% 30.48 in 10.0 mi Calm Calm - N/A   Unknown
7:35 PM 33.6 °F - 31.1 °F 90% 30.48 in 10.0 mi Calm Calm - N/A   Unknown
7:55 PM 33.8 °F - 31.3 °F 90% 30.48 in 10.0 mi Calm Calm - N/A   Unknown
8:15 PM 32.9 °F - 30.7 °F 92% 30.49 in 10.0 mi Calm Calm - N/A   Unknown
8:35 PM 32.2 °F - 30.2 °F 92% 30.50 in 10.0 mi Calm Calm - N/A   Unknown
8:55 PM 32.0 °F - 29.8 °F 92% 30.50 in 10.0 mi Calm Calm - N/A   Unknown
9:15 PM 32.0 °F - 29.7 °F 91% 30.50 in 10.0 mi Calm Calm - N/A   Unknown
9:35 PM 31.8 °F - 29.5 °F 91% 30.49 in 10.0 mi Calm Calm - N/A   Unknown
9:55 PM 30.7 °F - 28.4 °F 91% 30.50 in 10.0 mi Calm Calm - N/A   Unknown
10:15 PM 30.4 °F - 28.0 °F 91% 30.50 in 10.0 mi Calm Calm - N/A   Unknown
10:35 PM 31.1 °F - 28.9 °F 92% 30.51 in 10.0 mi Calm Calm - N/A   Unknown
10:55 PM 31.5 °F - 28.6 °F 89% 30.51 in 10.0 mi Calm Calm - N/A   Unknown
11:15 PM 30.6 °F - 28.0 °F 90% 30.51 in 10.0 mi Calm Calm - N/A   Unknown
11:35 PM 30.4 °F - 28.0 °F 91% 30.51 in 10.0 mi Calm Calm - N/A   Unknown
11:55 PM 29.7 °F - 27.3 °F 91% 30.51 in 10.0 mi Calm Calm - N/A   Unknown